Wind_Speed
25 25 27 31 32 30 26 24 24 23 22 21 21 20 19 20 23 24 21 16 12 17 19 15 17 20 21 24 23 23 24 23 24 25 25 25 24 22 19 19 20 17 14 11 8 7 6 5 6 9 10 9 5 4 7 8 8 8 8 8 8 7 8 8 8 9 11 14 16 16 15 16 15 15 15 14 13 13 12 11 11 11 12 12 13 13
23 29 33 33 31 27 23 22 22 22 22 23 24 25 24 23 25 25 21 18 13 17 20 18 22 25 22 23 24 24 26 25 25 27 27 26 24 20 16 18 22 20 17 13 10 9 7 6 7 9 9 7 4 5 8 8 8 9 9 10 9 7 9 9 9 10 11 13 14 14 14 15 15 15 15 14 13 13 12 9 8 8 9 9 8 8
21 31 34 29 26 25 24 23 23 24 23 22 22 24 27 26 25 24 21 17 14 17 20 21 26 29 27 28 26 24 26 24 25 28 29 28 25 21 17 19 24 24 20 15 12 11 9 7 7 7 6 6 5 6 9 10 11 11 11 11 10 8 9 11 12 13 14 15 15 14 14 15 16 16 17 16 14 13 10 8 8 7 6 4 3 4
22 25 23 20 20 22 22 22 21 22 23 23 21 21 26 26 24 23 18 13 14 17 21 23 26 30 29 27 24 23 25 24 25 27 29 29 27 24 21 21 25 24 20 16 13 12 9 7 7 6 5 6 5 6 9 11 11 11 11 11 11 10 10 12 14 17 18 17 17 16 16 17 18 17 17 16 15 13 10 8 8 6 5 3 2 3
22 16 10 11 14 16 17 18 18 20 22 22 22 21 22 22 21 22 19 16 18 19 20 20 22 23 21 18 21 23 24 24 24 25 28 29 28 25 22 23 26 24 19 16 13 11 9 7 7 5 6 7 7 7 10 11 11 11 12 11 11 11 12 15 17 19 20 18 18 17 17 19 20 17 16 15 13 11 9 8 7 6 4 3 2 1
19 12 11 13 11 11 13 15 16 18 20 20 21 20 18 19 19 19 18 17 19 19 17 15 13 12 13 13 19 23 23 22 21 23 26 30 30 25 19 22 27 25 20 15 12 10 9 8 8 7 8 8 8 10 11 12 11 12 13 12 12 13 14 17 18 20 20 18 18 17 16 18 19 15 14 14 12 11 9 9 8 6 5 3 2 1
17 12 14 15 12 12 14 15 15 15 18 21 19 15 15 15 17 17 15 15 17 19 18 18 13 8 10 11 16 20 19 17 16 18 22 26 28 23 18 22 28 26 21 18 14 12 11 10 8 8 8 9 10 12 13 12 12 13 13 13 13 14 16 18 19 19 18 17 18 16 15 16 15 13 13 13 12 11 10 10 9 7 5 4 3 1
17 15 16 15 14 15 15 14 11 11 17 20 14 12 13 15 15 14 13 15 18 20 23 22 16 9 6 7 11 13 13 12 13 16 18 21 22 20 19 23 28 25 21 19 16 13 11 9 8 8 9 11 12 14 14 14 13 14 14 14 14 15 17 19 19 18 17 17 17 15 15 15 14 13 13 12 11 11 11 11 9 8 6 4 3 1
16 16 15 13 13 15 14 11 8 10 16 17 13 12 14 14 14 14 13 16 16 15 19 20 11 6 4 6 8 8 8 9 9 11 15 17 19 20 21 25 28 25 21 20 16 13 11 8 8 8 10 12 14 16 16 14 14 14 14 14 14 16 17 18 18 17 17 17 16 16 15 15 15 14 13 11 10 12 13 11 9 7 5 4 2 0
13 13 12 13 16 16 14 11 12 16 17 15 14 15 15 13 15 16 14 16 13 8 14 17 10 4 3 6 10 9 6 5 5 7 12 15 18 21 24 26 28 25 22 20 16 13 10 8 9 11 13 14 15 16 16 14 14 14 15 14 15 16 17 18 18 17 17 17 18 17 16 16 16 15 13 11 11 13 13 11 9 7 5 4 2 1
16 15 16 17 18 16 14 14 17 18 16 15 15 16 17 18 20 19 15 15 9 5 13 16 10 6 2 5 9 7 3 2 2 5 10 16 20 23 25 27 27 24 22 20 16 12 10 10 12 15 16 16 16 16 16 15 15 16 16 16 16 17 18 18 19 19 18 18 19 18 16 16 16 15 14 12 14 14 13 10 8 6 5 4 2 0
21 21 21 20 18 18 18 18 17 15 14 16 17 16 16 16 16 14 10 9 4 3 11 13 10 9 3 4 8 6 3 1 1 2 3 10 19 24 27 28 27 24 22 18 13 11 12 14 16 18 19 18 16 16 16 16 17 18 18 17 17 17 18 19 20 21 20 20 20 18 16 16 16 18 17 15 14 13 11 10 8 7 5 4 2 1
25 25 22 18 17 19 20 21 18 14 15 17 19 17 11 5 4 5 3 3 4 6 9 9 10 7 3 6 8 6 3 2 1 1 4 7 19 27 28 27 25 21 15 9 9 13 15 16 17 19 19 17 16 15 16 17 18 19 19 18 18 18 19 20 21 22 21 21 20 18 18 18 18 19 20 19 18 15 13 12 10 8 7 5 3 1
22 23 22 21 19 18 19 21 19 16 17 19 21 19 9 2 2 2 3 0 3 7 6 7 9 5 2 6 8 7 6 4 4 5 5 10 19 24 23 22 19 13 6 6 11 16 17 16 15 17 18 16 16 16 16 17 17 18 19 19 19 20 21 21 22 22 22 21 19 18 19 20 20 20 21 22 21 18 16 14 11 8 7 6 3 1
13 13 14 16 15 14 14 15 15 15 15 16 19 17 12 8 5 3 3 2 3 4 2 4 6 3 3 4 5 7 8 8 7 8 10 15 20 21 20 18 14 10 8 9 13 17 17 16 15 15 16 16 16 16 17 17 16 16 17 19 19 20 21 21 21 22 21 20 18 17 18 20 20 21 21 21 20 18 16 14 11 9 8 7 4 2
13 13 13 11 9 11 12 12 13 15 13 13 15 15 12 12 11 7 4 4 3 2 2 1 2 4 6 5 5 7 8 10 12 13 17 21 22 21 19 16 14 14 13 11 14 18 17 17 17 16 16 17 17 16 16 17 16 16 17 19 20 20 20 21 21 20 20 19 17 16 18 19 20 21 21 22 20 18 16 14 12 10 8 7 5 3
11 15 17 14 13 13 12 12 15 16 14 11 14 17 14 12 13 11 5 2 2 2 1 0 1 6 7 5 7 9 10 14 17 20 24 24 23 23 22 20 18 17 17 14 16 19 18 19 20 19 17 17 17 16 16 17 17 17 17 18 20 21 21 21 21 21 20 19 18 18 18 19 19 19 20 21 20 18 17 15 12 10 9 8 6 4
11 15 16 14 13 12 11 12 14 17 17 14 14 17 15 10 11 12 4 2 2 2 1 1 3 7 6 3 7 11 14 19 22 26 29 26 25 25 23 22 21 18 18 17 19 21 22 21 21 21 20 18 17 17 17 17 19 19 18 18 19 20 21 22 22 22 20 19 19 18 18 18 18 19 20 21 20 18 17 15 14 14 13 12 10 7
14 16 16 15 11 9 10 11 13 16 19 19 15 12 10 6 7 10 5 2 2 2 0 1 3 8 8 6 8 12 16 22 26 27 28 23 22 24 24 24 22 18 18 18 20 22 23 22 21 21 21 19 18 18 18 19 21 21 21 20 20 20 20 21 22 21 20 19 19 19 20 19 19 19 19 20 20 19 18 16 15 15 12 11 10 8
12 12 14 15 11 7 8 10 12 15 18 20 17 13 11 8 6 8 8 5 5 3 1 2 2 5 9 10 11 13 17 23 26 26 25 22 21 23 24 25 22 18 18 19 21 22 22 23 24 24 23 21 19 18 20 22 24 24 24 24 24 23 22 21 21 21 20 19 19 20 21 21 21 20 18 19 21 21 19 18 16 14 12 12 11 8
10 10 12 15 12 9 8 6 6 10 16 20 18 16 16 14 9 6 6 5 4 3 3 3 1 4 10 13 13 15 16 19 21 22 21 20 19 20 22 25 23 19 19 22 22 21 21 22 22 23 23 22 21 20 22 23 24 25 26 27 27 25 23 22 21 21 20 19 19 21 22 23 23 22 20 21 24 23 21 19 16 15 14 14 11 9
7 6 10 13 12 12 11 8 4 4 9 14 17 18 19 19 13 6 4 5 4 2 4 5 2 5 11 13 14 17 17 17 18 18 18 17 17 20 21 23 23 21 21 21 18 16 17 17 16 16 17 19 21 23 23 24 25 27 28 27 25 24 23 23 22 22 21 20 21 22 23 24 25 23 22 23 26 25 23 20 19 17 15 14 12 10
8 4 6 9 7 8 8 9 8 4 3 6 12 17 19 19 17 11 6 6 7 4 4 7 3 4 10 12 11 15 17 18 18 18 18 17 18 21 21 17 17 17 16 14 12 13 15 15 12 11 11 14 18 21 21 22 24 25 24 21 20 22 24 24 23 23 23 23 23 24 23 25 26 25 24 25 27 26 24 24 23 19 17 16 13 12
16 9 7 6 5 10 11 11 10 8 5 4 6 11 14 14 17 16 11 10 11 9 7 6 2 4 10 10 8 11 14 17 19 19 18 18 19 20 17 12 13 13 13 14 16 16 17 15 11 9 9 11 13 16 17 20 22 20 18 17 19 22 23 23 23 24 25 26 26 26 25 26 27 26 27 27 28 28 27 28 26 21 20 18 14 14
20 14 10 6 4 6 7 7 8 9 10 9 6 7 9 10 12 12 11 12 11 11 10 7 3 7 12 9 7 9 10 13 17 19 19 18 18 17 12 8 10 12 13 15 17 19 19 15 12 11 12 12 13 15 17 20 21 20 19 20 22 23 24 23 24 27 28 28 28 28 27 28 28 28 30 30 30 32 32 30 27 24 23 20 15 15
16 16 15 10 5 5 5 4 4 6 9 11 11 9 7 7 9 9 10 12 10 11 12 8 8 13 15 11 10 10 10 11 14 17 18 16 13 11 8 7 10 12 13 13 14 17 17 14 12 13 13 14 15 17 19 20 19 18 19 19 22 25 25 25 28 31 30 28 27 28 29 30 30 30 32 34 35 38 39 35 30 28 27 22 17 16
13 16 17 15 11 10 9 6 5 6 9 11 12 13 10 7 7 7 8 9 10 11 10 8 11 18 20 15 13 12 12 13 14 14 15 12 9 7 7 8 11 12 13 11 10 14 15 15 14 14 13 13 14 15 17 18 17 16 16 15 18 22 21 23 29 31 27 25 27 30 30 30 31 32 34 36 38 40 40 36 31 28 28 25 20 17
13 16 17 15 11 8 7 6 6 7 9 11 12 14 13 10 8 6 3 4 9 10 8 8 13 19 21 19 16 16 16 16 16 15 14 12 10 10 10 11 12 13 13 12 11 13 14 14 14 13 12 12 12 13 14 15 15 13 13 13 15 17 16 18 23 23 20 20 23 27 27 27 27 28 28 29 32 33 33 30 27 26 28 26 20 17
12 14 16 16 12 7 6 6 6 7 9 11 11 12 13 12 12 10 4 1 4 6 5 11 17 19 22 23 21 20 19 17 17 17 16 14 13 13 13 14 14 13 13 13 12 13 14 14 14 13 12 11 11 10 10 11 13 12 12 12 13 13 12 13 14 12 11 13 15 16 18 18 16 16 17 18 22 25 25 24 24 26 27 26 22 20
9 11 15 17 14 9 7 8 7 6 6 8 8 9 11 11 12 14 13 9 5 3 3 11 18 19 21 23 22 22 20 18 18 17 16 15 14 13 14 15 15 15 14 13 13 13 13 14 13 12 10 10 10 9 10 12 13 12 13 13 13 13 12 11 10 8 9 11 11 11 12 12 13 14 14 14 16 19 21 24 25 26 26 26 26 24
7 8 12 15 13 9 8 9 9 7 6 5 6 7 9 9 9 12 14 14 12 6 4 11 17 18 19 21 21 20 18 18 17 16 16 15 14 15 15 16 16 16 15 15 15 15 14 14 13 12 10 10 11 12 13 14 13 12 13 14 15 15 14 12 11 10 11 12 12 12 12 12 13 14 14 15 16 18 22 25 27 27 27 27 26 22
6 6 8 10 10 8 9 10 10 9 7 6 8 9 8 8 8 8 10 13 15 12 9 12 16 17 17 19 21 18 17 17 17 17 17 17 16 17 17 16 17 17 17 16 16 16 15 15 15 14 12 12 13 15 17 16 15 14 14 14 14 15 14 13 12 12 13 13 12 13 14 14 13 14 16 18 20 22 24 26 27 27 27 26 25 23
3 5 6 7 8 9 11 12 12 11 8 5 6 7 7 6 6 5 8 10 11 12 12 14 17 16 16 20 21 18 17 16 17 18 19 20 21 21 18 17 17 17 16 16 16 17 16 16 16 16 14 13 13 15 17 18 17 16 16 16 15 15 14 13 13 13 14 13 13 13 15 16 17 17 19 22 23 25 26 27 27 27 26 25 25 24
3 5 4 6 9 13 14 13 10 8 5 4 6 7 6 6 5 3 5 6 8 8 8 12 17 19 19 21 20 18 16 15 15 17 18 19 21 21 20 19 18 17 17 17 17 18 18 18 18 17 15 13 13 14 15 16 16 16 16 15 15 15 15 14 14 14 13 13 13 14 15 17 18 19 21 23 25 27 28 29 29 28 27 26 26 25
5 6 6 8 13 16 15 10 5 2 4 7 8 8 7 7 4 3 4 7 8 7 5 9 18 23 22 21 19 16 16 16 16 17 17 17 19 20 20 20 19 18 18 19 19 19 19 19 18 17 16 14 14 14 14 14 15 15 14 14 13 13 14 15 16 15 15 14 14 14 16 17 18 19 20 22 23 25 28 29 29 28 28 28 29 29
6 8 10 11 13 14 12 6 2 3 8 10 9 8 8 8 5 4 6 9 7 5 3 8 17 22 20 19 18 16 16 16 16 14 13 13 13 13 14 17 18 18 19 20 20 21 20 20 20 19 18 16 14 14 14 13 14 14 14 14 13 13 14 14 14 14 15 15 15 15 16 16 16 18 19 21 21 22 24 26 26 26 27 28 29 30
5 8 11 13 11 10 9 7 5 8 11 11 12 12 11 10 9 9 10 10 8 7 6 8 14 16 15 14 14 13 12 12 10 8 9 8 7 5 6 9 12 14 16 17 20 22 21 21 21 21 20 19 18 17 15 15 14 14 14 14 15 15 15 14 14 14 14 14 14 15 15 16 16 17 19 20 21 21 22 23 22 22 23 24 25 26
5 7 11 11 9 10 12 10 6 5 7 11 16 15 13 12 11 12 13 14 13 11 8 7 10 12 11 10 10 9 8 7 6 6 7 6 6 6 6 6 7 8 8 9 12 15 17 20 22 22 23 23 23 22 20 18 17 16 15 15 15 16 16 15 14 15 15 16 16 17 17 17 17 17 18 20 21 22 22 21 20 20 21 22 23 25
6 6 10 9 8 13 15 10 4 3 6 14 18 15 13 12 12 12 12 13 15 14 10 7 8 10 10 10 10 9 8 5 4 6 8 8 8 10 10 9 8 8 7 5 4 5 9 13 15 17 18 19 22 24 24 23 23 21 19 19 19 20 19 17 15 14 13 15 18 19 18 16 16 17 19 20 22 22 22 21 21 21 22 22 24 25
6 6 7 7 9 15 16 11 6 5 8 16 19 16 12 11 12 11 8 10 16 17 13 9 7 6 7 8 8 7 7 5 3 5 7 8 9 10 11 10 10 9 8 6 4 4 6 8 9 8 8 8 10 13 15 16 18 19 18 18 19 18 17 15 13 12 11 12 15 16 16 15 15 16 17 18 19 19 20 21 22 22 23 23 24 25
6 5 5 7 11 14 13 10 7 6 11 18 19 16 14 12 13 11 6 9 17 18 14 12 9 7 7 7 6 6 4 3 5 7 8 9 8 9 10 10 10 8 6 5 5 7 9 11 11 9 7 7 7 7 8 9 9 10 10 12 12 12 11 11 11 11 12 12 13 14 14 15 15 15 16 17 17 18 19 21 23 23 24 24 25 25
5 5 6 7 9 10 10 10 7 5 11 18 18 16 15 13 11 12 9 9 15 17 15 14 11 8 8 7 5 4 3 3 6 8 9 9 8 8 8 8 8 7 6 7 8 8 10 11 12 10 9 9 9 8 8 9 9 9 8 9 11 11 11 12 12 13 13 13 14 14 14 15 16 17 18 19 19 20 21 22 23 24 24 25 25 25
5 5 7 8 7 7 7 7 5 3 8 16 16 15 16 13 9 12 12 10 12 14 13 12 11 9 8 7 4 2 2 5 8 9 9 9 9 9 8 8 8 8 8 8 9 9 10 10 10 9 9 9 9 10 10 10 10 10 11 12 14 15 15 15 15 15 15 15 16 16 16 17 18 19 20 20 21 22 22 23 24 26 27 27 27 26
5 5 6 6 4 4 4 4 4 3 6 12 12 12 15 14 9 9 10 10 11 12 11 11 12 10 6 5 3 3 6 8 8 8 8 8 8 9 8 8 8 8 9 9 10 9 9 8 8 8 9 9 10 10 11 12 12 12 13 14 15 17 18 18 19 19 19 19 20 20 20 21 21 22 22 23 24 25 26 28 29 31 32 33 33 32
7 6 4 3 3 5 5 7 6 6 6 7 7 7 12 14 10 6 8 10 11 10 8 9 10 8 5 4 3 3 5 7 6 6 6 6 6 5 5 6 8 8 8 9 9 9 9 8 8 9 9 9 10 10 11 12 13 14 14 15 16 17 18 19 20 21 22 22 23 24 24 25 25 25 25 26 27 28 30 32 34 34 35 36 35 33
9 8 5 3 6 8 10 11 10 9 7 5 4 3 3 6 8 9 10 11 11 10 8 7 7 7 5 3 3 2 2 2 2 2 3 4 5 6 7 8 9 9 9 9 9 10 10 10 10 11 12 12 12 13 13 14 15 16 17 18 19 20 21 22 22 23 23 24 26 27 27 27 28 28 28 30 31 32 32 33 34 35 35 35 34 33
10 10 6 5 7 8 10 11 10 8 8 7 6 5 4 5 8 7 7 9 12 14 13 11 10 9 8 7 5 4 4 4 4 4 5 6 8 9 9 9 8 9 9 10 11 11 12 12 13 14 15 15 16 16 17 18 19 20 20 21 22 23 24 25 25 26 27 28 28 29 30 30 30 31 32 33 35 35 36 37 37 38 39 40 39 39
10 9 7 5 4 7 12 12 8 7 9 7 5 5 5 5 6 6 5 6 10 14 15 14 13 12 10 9 7 6 6 7 8 9 9 10 11 10 10 9 8 9 10 11 13 13 14 15 15 16 16 17 18 19 20 21 21 22 23 24 25 26 27 28 28 29 30 31 32 32 33 33 34 34 35 35 36 37 38 39 40 41 42 43 43 42
11 10 8 7 5 8 12 12 9 9 10 9 7 6 6 6 6 6 6 6 8 10 11 10 10 9 7 7 7 8 9 9 10 11 12 12 12 12 11 11 10 11 12 13 14 15 15 15 16 16 17 17 18 19 20 21 21 22 23 25 26 27 28 29 30 31 31 32 33 34 35 36 36 37 37 38 38 39 40 40 41 41 42 43 44 44
10 10 10 8 6 5 8 9 9 7 7 8 8 5 5 5 5 4 5 5 6 7 7 6 7 7 7 8 9 9 10 11 12 12 13 14 14 14 13 13 13 14 15 15 16 16 16 16 16 16 17 17 18 18 18 19 19 20 21 22 23 24 25 26 27 28 29 30 31 32 33 33 34 34 35 35 36 36 37 37 38 39 39 39 41 42
9 10 10 8 6 5 7 8 7 4 2 4 5 4 3 3 3 5 6 7 8 9 9 10 11 12 13 13 13 12 12 12 13 14 14 15 16 15 14 14 14 16 17 17 17 17 16 15 15 15 15 15 15 16 16 16 16 17 17 18 18 19 20 20 21 22 23 24 24 25 25 26 26 26 27 27 27 27 27 28 30 32 33 33 35 37
Wind_Direction
211 220 224 225 227 227 229 235 241 248 254 254 256 260 260 263 258 250 255 263 284 299 289 279 279 279 266 252 257 263 260 258 253 248 246 247 250 254 254 247 240 233 228 230 239 250 261 286 311 317 320 322 316 250 218 207 194 199 212 210 208 199 180 177 183 185 184 182 179 177 177 178 182 187 189 194 200 202 206 211 217 226 236 242 244 246
217 226 229 229 232 236 237 241 244 248 252 254 256 258 258 259 258 255 262 267 282 302 294 286 286 283 271 266 272 266 256 253 250 247 245 247 253 254 249 238 231 227 223 228 239 246 252 273 302 312 321 324 301 238 228 221 199 201 212 205 198 189 177 178 183 181 176 178 181 182 183 184 187 191 191 193 196 196 197 201 211 221 226 228 228 232
225 230 233 235 239 242 244 243 244 247 251 254 253 256 255 253 258 263 265 269 287 303 295 291 292 285 278 280 279 262 251 249 248 249 247 250 254 252 250 236 226 224 224 230 242 243 245 266 296 306 315 314 285 247 235 220 198 201 213 205 192 180 179 182 179 171 168 176 184 189 191 190 190 192 191 186 186 188 188 188 196 200 201 197 196 213
230 233 236 241 241 239 241 241 244 246 247 247 245 250 253 251 259 267 271 284 298 300 296 296 295 289 286 284 273 253 246 246 246 247 246 250 254 255 260 246 226 223 226 231 239 238 241 267 288 293 301 295 270 245 228 207 195 203 212 205 192 180 181 184 176 168 169 177 186 192 192 189 189 190 188 183 181 181 178 180 185 180 175 175 185 211
235 231 240 251 241 237 239 239 242 245 245 245 243 247 253 249 251 264 280 299 298 294 296 300 302 299 294 277 259 249 245 246 245 243 240 243 248 252 257 244 224 220 225 229 234 236 245 267 270 272 288 280 247 226 216 203 199 209 211 204 197 187 181 183 180 174 173 176 180 184 187 188 187 185 182 179 176 172 171 174 172 162 162 174 192 214
242 227 241 255 246 241 247 246 245 246 249 250 245 244 246 245 250 265 282 290 291 293 295 304 314 319 311 276 249 246 245 244 240 239 239 239 244 245 240 231 219 214 219 221 223 230 242 254 258 271 281 265 232 208 204 204 206 213 214 207 201 191 183 184 184 180 178 178 177 178 185 185 181 179 177 175 172 169 169 171 163 155 157 160 163 167
240 220 231 244 246 252 259 261 255 248 252 254 246 235 233 245 258 266 271 273 282 288 288 296 295 286 302 278 243 241 247 243 232 234 237 238 242 234 216 216 215 211 211 210 213 225 237 246 255 273 268 246 221 201 201 209 211 215 215 208 200 194 187 184 185 185 183 181 177 176 180 180 179 182 179 176 172 169 170 170 160 155 154 150 155 162
229 218 223 232 244 255 261 263 257 246 252 251 233 216 229 246 256 259 265 268 276 282 282 288 282 254 260 252 232 233 236 235 231 235 236 233 230 216 200 206 211 212 211 210 219 230 233 239 252 261 248 228 213 203 207 215 216 215 214 207 198 192 188 185 185 188 185 180 176 174 176 178 182 187 183 178 174 171 172 169 162 159 155 150 157 163
228 222 224 236 254 259 256 260 263 249 251 245 224 226 245 251 255 261 271 271 274 281 279 280 273 243 237 217 201 195 205 222 229 232 230 221 214 207 199 202 209 213 212 212 221 227 228 239 249 246 231 219 211 206 210 216 215 213 211 207 198 191 188 185 185 187 182 177 173 172 177 180 182 186 181 176 176 175 173 171 168 164 156 146 145 164
232 228 237 256 265 263 259 270 281 268 256 246 241 249 253 248 254 265 271 269 273 275 268 273 265 237 257 218 188 171 190 221 220 217 213 209 208 205 200 202 209 210 210 213 216 217 223 231 232 228 221 215 211 210 210 210 209 210 208 203 196 191 188 185 186 185 180 177 173 173 178 179 181 183 175 175 190 187 179 176 172 165 157 145 139 166
241 245 255 261 262 264 269 279 285 276 260 254 257 255 248 244 250 262 265 262 273 265 258 270 257 212 235 236 201 186 204 224 220 213 203 204 206 203 201 204 207 207 210 214 212 215 226 227 224 222 216 212 211 212 211 207 207 207 203 198 194 191 188 187 186 182 178 177 176 176 178 178 180 179 174 185 199 194 185 184 180 175 177 168 157 274
252 257 260 259 256 261 272 280 282 269 246 248 256 248 243 245 249 258 257 245 239 250 264 267 235 199 184 226 214 212 233 237 305 276 233 213 202 197 199 201 203 205 207 209 213 224 234 235 232 221 211 209 210 212 212 209 203 199 196 193 190 188 188 189 186 180 177 177 177 178 178 179 180 178 179 190 201 200 196 198 196 197 204 198 188 304
260 260 261 258 254 260 269 275 274 253 228 231 237 230 228 245 264 264 246 214 203 229 263 253 216 201 169 176 191 197 192 162 183 266 299 237 198 191 193 196 198 198 199 215 236 236 236 238 233 218 208 207 208 209 208 203 196 192 191 189 186 185 186 189 186 181 177 176 178 180 178 180 184 182 181 186 193 200 207 210 210 213 221 222 223 260
261 261 259 257 260 265 264 262 257 238 221 221 222 219 213 152 70 289 251 275 234 228 244 219 196 211 212 176 182 190 195 208 207 206 237 222 196 186 184 185 187 189 214 259 235 227 232 234 226 212 206 206 207 205 201 194 189 187 186 185 184 183 185 189 188 184 180 177 178 181 180 181 186 184 182 183 186 193 203 211 215 223 236 241 254 321
255 263 255 249 259 267 260 253 248 239 229 223 220 220 225 215 196 235 231 199 206 205 198 177 179 214 237 195 195 200 210 214 196 188 198 192 181 173 171 179 193 215 249 247 215 215 228 229 219 208 205 208 208 205 199 192 187 184 182 183 183 183 186 189 189 189 188 184 183 186 188 187 187 184 183 185 188 194 203 211 221 241 257 266 288 333
247 258 250 236 249 263 263 255 243 241 237 230 226 222 230 239 232 230 227 205 187 124 81 125 167 190 190 189 193 194 201 190 178 184 186 177 173 175 181 195 221 232 228 221 210 211 223 226 217 209 208 210 210 208 204 196 191 186 181 179 180 183 188 191 192 195 196 194 193 195 196 194 189 185 186 188 193 200 205 211 226 245 258 274 295 301
242 253 253 251 259 262 264 258 243 241 240 234 234 229 235 253 241 221 207 188 154 101 87 39 121 172 177 187 195 188 184 177 176 184 185 180 183 189 194 198 209 216 212 213 212 211 220 224 216 211 211 211 211 212 207 200 199 196 185 179 179 181 186 191 195 198 198 197 197 198 199 197 191 187 190 193 197 205 210 215 223 226 232 254 273 263
249 257 254 252 262 262 255 255 248 246 245 241 239 233 234 245 228 209 183 56 84 115 210 194 141 166 170 185 194 183 177 177 181 185 185 187 193 196 198 195 196 208 212 211 210 211 220 221 212 209 208 209 212 213 206 200 202 201 193 186 184 183 187 192 195 198 199 198 198 198 199 197 192 190 193 197 202 209 214 215 215 217 233 249 250 240
253 264 259 252 264 274 265 263 256 244 240 240 238 228 220 212 204 198 180 112 147 147 251 175 153 174 182 182 180 180 181 181 185 188 190 199 207 209 206 195 194 212 222 217 210 211 218 217 210 207 205 206 210 208 203 199 200 202 198 193 191 192 193 197 199 199 199 198 199 200 199 198 193 190 195 202 207 211 211 211 215 222 232 232 220 216
241 257 264 257 257 277 279 272 258 237 230 232 230 222 217 221 224 208 195 182 169 161 165 164 193 206 199 192 182 182 188 186 188 195 200 207 213 217 211 199 202 222 230 223 215 214 219 218 212 207 203 204 207 205 203 199 198 201 200 196 196 196 197 201 204 205 202 199 201 204 203 201 197 192 197 205 208 210 208 209 214 213 206 200 200 203
228 239 258 256 250 268 276 270 259 233 224 225 225 221 218 219 224 210 201 197 169 160 157 150 236 221 198 200 192 186 193 193 194 203 210 211 214 218 213 205 210 220 222 218 214 216 224 226 222 213 205 202 205 208 206 201 200 202 203 202 199 197 200 205 209 214 211 205 206 209 207 205 203 199 200 205 208 208 206 205 203 195 195 199 200 200
209 225 262 266 263 268 262 245 241 233 228 229 225 220 216 213 210 191 194 208 183 177 171 159 202 209 194 203 198 190 197 197 198 209 216 218 226 232 228 215 211 214 217 216 212 216 230 239 242 238 222 208 208 213 209 201 202 205 208 209 202 197 202 208 213 220 221 216 213 213 212 213 211 204 202 205 207 207 203 198 192 190 199 205 206 210
219 225 278 285 267 240 216 207 215 208 214 226 216 215 215 215 216 211 210 201 178 162 142 135 127 186 194 207 200 191 200 202 205 214 219 223 230 238 240 230 217 219 221 220 220 226 236 242 251 255 236 212 210 218 215 207 210 212 213 216 212 207 208 211 216 222 225 225 223 219 216 218 217 210 205 206 207 205 199 193 194 203 213 212 213 214
233 240 266 270 214 186 173 176 195 197 201 207 192 202 209 214 221 222 227 218 190 172 150 126 94 182 191 204 199 189 199 206 209 212 217 226 229 232 236 220 208 220 227 226 227 229 232 238 246 247 224 203 202 212 215 215 220 221 217 220 224 221 218 218 221 224 226 227 228 227 221 219 220 214 209 207 207 205 200 198 205 214 215 212 216 209
233 231 238 233 159 166 183 187 196 200 209 211 189 183 191 197 208 213 218 214 195 180 174 158 146 175 180 189 191 187 194 204 213 215 217 224 226 230 237 215 204 221 229 230 233 234 233 233 233 230 217 204 199 205 213 218 222 222 218 220 227 228 225 225 225 226 228 228 231 232 229 228 227 220 213 210 208 205 203 204 212 216 211 210 214 202
227 215 219 225 189 172 199 209 209 203 198 195 189 188 185 181 191 197 199 197 187 183 185 172 157 164 170 179 186 189 197 205 216 220 216 213 214 222 230 217 215 227 231 236 242 239 230 215 204 208 208 206 207 210 216 220 222 226 225 223 229 230 228 228 230 228 226 228 232 235 233 232 232 228 221 214 210 209 209 211 218 221 215 212 213 203
219 205 214 232 225 197 189 188 192 198 194 186 183 192 196 189 188 187 189 196 190 181 176 173 171 168 168 177 185 187 196 201 207 213 208 200 204 216 223 221 222 227 233 239 238 225 209 192 190 197 202 209 217 220 221 221 221 226 228 227 233 236 231 229 233 232 228 229 234 236 234 231 231 232 226 217 215 217 220 225 230 225 219 218 220 212
214 202 206 221 213 180 179 194 184 184 195 191 184 191 199 204 208 197 163 177 187 180 167 168 178 174 169 174 185 190 192 197 204 207 201 197 206 215 220 225 223 223 230 232 223 211 203 197 196 199 206 216 225 230 228 223 220 221 223 226 235 241 237 228 231 235 233 232 235 237 239 237 233 234 232 225 223 226 229 233 230 221 219 222 225 226
210 205 203 208 203 171 156 181 188 188 195 196 195 198 200 204 216 222 225 158 177 195 196 174 173 176 175 177 187 194 193 197 205 206 201 203 212 213 213 219 216 213 219 223 218 212 209 206 203 203 210 214 216 222 221 216 213 211 212 216 220 225 228 226 228 229 222 221 225 229 235 233 223 221 223 218 217 221 223 220 213 214 220 222 230 245
205 204 202 206 211 200 168 162 166 167 179 189 192 203 209 211 222 232 235 239 241 257 211 171 170 178 183 183 191 198 197 198 202 207 210 217 222 217 211 213 211 208 214 220 221 219 215 214 213 212 210 202 196 198 200 202 203 198 198 202 201 200 203 205 206 194 184 192 197 199 204 198 193 200 200 191 193 202 204 202 205 214 223 231 241 249
226 205 197 201 203 198 183 177 172 163 169 177 160 166 190 197 207 224 227 229 234 231 180 168 173 181 186 187 192 199 202 203 205 211 218 224 232 233 223 211 207 212 220 223 221 220 219 220 220 218 211 198 187 184 187 194 197 194 196 198 197 196 195 191 186 174 168 174 178 182 185 184 191 199 193 185 189 197 200 202 209 218 227 239 243 233
246 202 186 192 188 180 184 191 195 187 179 178 160 146 150 161 174 199 209 215 223 222 204 184 180 183 191 194 195 197 200 206 211 214 215 214 217 227 230 220 211 213 217 219 218 217 217 219 218 216 212 201 187 182 182 186 191 197 203 203 201 199 196 190 184 174 168 171 178 186 188 187 192 199 196 194 197 202 206 210 216 223 228 230 225 216
220 181 180 186 166 154 168 178 180 174 166 174 170 145 133 146 158 185 198 196 204 216 222 211 197 194 200 199 196 196 199 206 215 219 220 214 205 207 216 217 212 212 213 215 217 217 216 216 214 212 211 203 190 182 181 182 187 197 205 209 210 209 205 200 195 187 179 180 189 197 195 191 194 200 201 200 201 204 209 215 221 224 222 216 213 214
150 135 149 176 154 144 154 159 152 152 163 189 173 141 126 139 147 196 204 167 160 183 208 214 203 199 200 198 198 202 204 205 210 212 212 210 204 203 208 207 204 209 217 219 218 219 220 218 213 211 210 205 193 186 184 184 186 191 200 208 213 216 216 212 208 202 194 190 194 202 203 200 199 202 204 205 205 205 208 213 217 218 215 214 216 219
178 157 147 162 158 152 154 153 127 131 197 189 170 147 137 141 147 245 208 147 143 163 186 208 200 192 190 191 193 203 210 212 215 209 197 193 198 202 206 208 205 207 215 221 222 224 225 222 217 212 211 207 201 196 195 197 197 196 200 207 214 221 224 222 217 210 205 202 201 203 205 203 203 207 211 214 214 211 211 212 212 212 215 218 221 222
187 190 175 163 159 159 162 163 158 166 172 177 171 158 156 157 164 199 173 144 138 144 161 199 191 179 175 180 189 201 211 214 215 203 180 176 187 194 201 210 212 209 210 217 223 227 229 229 225 220 218 216 213 208 204 205 207 207 208 210 214 222 228 227 222 215 210 209 208 206 206 205 205 208 212 216 217 215 217 219 215 213 219 223 226 228
171 196 187 163 155 166 160 136 133 147 153 164 167 163 169 172 173 178 163 138 125 129 153 190 187 174 169 177 186 193 197 200 197 171 150 152 164 182 202 215 220 218 212 217 223 224 225 228 231 231 231 232 232 227 219 213 211 212 215 212 207 209 216 220 221 220 219 220 219 216 215 213 212 213 213 213 213 212 215 220 220 219 222 225 228 233
166 191 192 172 163 176 160 129 124 151 162 172 170 169 176 176 175 179 165 145 136 133 142 172 174 162 157 159 162 161 161 173 183 169 166 174 182 198 219 228 230 223 207 208 220 221 220 224 230 233 234 235 239 238 233 227 224 223 226 221 207 199 204 213 219 221 221 225 228 224 219 216 214 216 217 217 217 218 219 222 225 225 224 224 226 231
174 187 198 189 174 175 165 146 148 191 182 178 175 174 177 176 175 176 166 158 156 146 136 145 149 144 142 141 142 141 138 147 185 190 192 201 201 200 205 209 211 208 198 193 204 215 216 220 225 226 222 220 225 229 230 230 228 224 225 228 222 211 207 208 213 217 219 227 230 223 214 214 217 220 222 223 225 228 229 230 232 232 230 229 228 228
186 190 199 190 176 176 169 156 164 187 185 185 185 183 185 187 184 177 166 173 174 164 157 163 162 159 164 154 148 146 141 147 190 200 193 195 198 197 195 196 199 202 207 213 211 202 198 193 190 193 195 201 215 219 218 219 217 208 205 211 214 208 201 196 197 207 219 231 232 221 212 217 225 227 227 227 230 236 240 242 242 241 240 239 235 233
177 177 177 171 172 178 175 163 166 187 191 190 191 192 193 195 194 191 184 182 179 173 168 171 175 180 179 168 165 168 163 174 195 196 191 187 190 196 196 198 202 204 203 201 195 194 196 196 193 198 214 231 238 235 226 222 221 214 204 205 209 211 209 207 212 227 239 244 242 235 229 228 230 231 233 235 238 245 249 251 251 250 247 244 242 241
153 144 143 153 164 173 175 166 161 183 194 191 193 198 198 196 201 206 205 190 185 183 178 172 172 180 182 179 189 198 203 202 193 189 189 184 181 188 191 190 192 191 186 186 189 191 196 202 205 209 215 216 213 218 227 232 240 246 241 235 238 239 235 229 228 233 238 243 246 246 243 238 235 236 238 240 243 246 247 248 249 249 248 247 246 247
135 136 139 143 151 160 163 157 147 163 195 193 194 199 197 195 209 219 214 198 188 189 185 173 170 184 193 188 186 184 173 185 190 191 192 187 179 179 182 181 182 181 179 183 190 192 194 197 200 200 200 200 199 201 207 216 228 234 234 234 239 242 242 238 234 232 233 239 246 248 247 245 243 242 242 242 243 244 242 242 243 244 245 247 248 251
98 118 137 140 147 156 146 136 138 147 177 188 195 202 201 201 214 231 223 205 188 187 190 185 180 182 177 153 122 104 137 160 176 184 186 181 173 172 178 185 192 193 190 191 196 200 200 200 202 204 204 205 206 206 208 214 220 224 228 232 235 238 241 243 243 244 245 248 250 252 252 252 251 250 249 248 247 245 245 245 245 245 246 248 250 253
74 88 107 113 131 135 108 92 100 112 133 169 186 203 211 208 204 211 214 203 190 186 191 191 178 161 139 132 135 135 146 156 162 159 159 165 170 184 205 213 214 215 213 212 215 219 221 222 222 224 223 219 218 219 219 222 224 225 228 231 234 236 239 241 244 247 249 251 253 254 254 254 254 255 255 254 252 251 251 251 251 249 249 248 247 250
71 66 59 93 114 110 94 82 78 79 83 96 114 130 192 185 165 170 189 190 184 180 183 187 174 158 161 187 204 208 209 210 196 172 182 205 223 242 248 243 239 238 234 233 235 236 238 240 239 239 238 236 234 233 231 231 233 234 233 233 234 236 238 240 243 245 247 250 253 254 255 254 254 255 255 255 254 253 253 255 254 252 253 254 254 257
68 54 55 105 116 104 100 97 87 82 82 76 75 79 79 105 127 150 182 190 186 181 182 190 193 192 203 214 218 235 259 275 286 285 273 264 264 263 258 251 247 244 240 241 242 243 246 247 247 246 245 243 242 241 240 239 238 239 240 241 241 241 241 242 244 245 246 248 250 253 255 255 256 256 256 255 255 254 254 255 255 255 257 260 262 263
60 53 52 64 89 112 121 118 110 109 109 104 102 109 108 109 124 147 175 199 200 192 189 194 199 200 203 206 207 224 247 265 276 277 273 273 274 273 269 262 252 247 248 250 252 253 254 252 251 251 250 249 248 247 246 245 244 244 245 246 247 249 249 249 248 248 249 250 250 251 253 254 255 256 257 257 258 258 258 258 259 260 262 264 265 265
51 46 39 35 64 122 134 132 131 132 130 132 138 146 153 155 159 167 173 185 196 193 191 194 196 197 205 216 227 241 254 262 267 269 270 273 272 270 269 266 262 259 259 259 259 259 259 258 258 259 258 257 257 256 255 254 252 251 250 250 250 251 252 252 252 252 252 252 252 253 253 254 255 256 257 258 260 261 262 263 264 266 268 269 270 269
43 41 40 36 54 118 146 152 153 151 146 146 148 156 166 165 169 183 189 193 199 202 207 218 224 234 247 254 256 258 260 260 258 259 262 263 263 263 262 262 263 261 258 257 257 259 261 264 267 267 266 265 263 261 260 260 258 257 256 254 253 253 254 254 254 254 255 255 255 256 257 257 258 260 261 262 263 264 265 267 268 268 269 270 271 271
52 56 55 46 55 99 135 148 150 154 168 166 177 210 230 233 250 254 254 258 261 262 266 269 271 274 275 274 274 270 264 261 257 254 254 254 255 257 257 257 259 261 262 264 265 267 269 270 268 266 265 265 265 265 265 265 264 263 262 261 260 259 259 259 259 259 259 259 260 261 261 263 264 265 266 267 268 269 270 272 273 274 274 273 273 273
Height
3079 3078 3076 3075 3075 3078 3081 3082 3083 3084 3085 3086 3086 3086 3087 3086 3085 3085 3087 3089 3090 3088 3086 3087 3087 3087 3087 3089 3091 3093 3094 3096 3096 3096 3096 3096 3097 3099 3102 3104 3106 3107 3107 3108 3109 3109 3110 3111 3111 3112 3113 3113 3114 3114 3115 3115 3115 3115 3116 3118 3119 3119 3120 3122 3123 3125 3126 3128 3129 3131 3133 3135 3136 3138 3139 3140 3141 3141 3141 3142 3142 3142 3142 3142 3142 3142
3077 3075 3072 3073 3076 3079 3082 3083 3083 3083 3084 3085 3085 3085 3085 3085 3083 3083 3086 3087 3089 3087 3085 3086 3085 3083 3084 3085 3087 3089 3090 3092 3093 3094 3094 3095 3097 3099 3101 3103 3105 3106 3106 3107 3108 3108 3110 3110 3110 3111 3112 3112 3112 3113 3114 3114 3114 3115 3116 3117 3118 3119 3121 3122 3124 3125 3127 3129 3131 3132 3134 3136 3137 3138 3139 3140 3140 3141 3141 3141 3141 3141 3141 3141 3141 3141
3074 3070 3070 3074 3078 3079 3080 3081 3082 3082 3083 3083 3084 3084 3083 3083 3083 3082 3084 3086 3087 3086 3084 3084 3083 3080 3080 3081 3082 3084 3086 3088 3090 3091 3092 3094 3095 3097 3099 3101 3102 3104 3105 3106 3107 3108 3109 3110 3110 3110 3111 3111 3111 3111 3112 3112 3113 3114 3115 3117 3118 3120 3121 3122 3124 3126 3127 3129 3131 3132 3134 3135 3137 3138 3138 3139 3139 3140 3140 3141 3141 3141 3141 3140 3140 3141
3070 3068 3071 3075 3077 3077 3078 3079 3080 3080 3081 3081 3082 3082 3080 3082 3084 3081 3082 3085 3085 3085 3084 3083 3080 3077 3076 3077 3078 3080 3083 3085 3087 3088 3090 3093 3094 3096 3097 3099 3101 3102 3104 3105 3106 3107 3108 3108 3108 3109 3110 3110 3110 3110 3110 3111 3113 3114 3115 3117 3118 3120 3121 3123 3124 3125 3127 3129 3130 3131 3132 3134 3136 3137 3138 3139 3139 3139 3140 3141 3141 3141 3141 3141 3141 3141
3068 3069 3072 3074 3074 3076 3076 3077 3078 3078 3078 3079 3080 3080 3080 3082 3083 3082 3082 3083 3083 3083 3083 3082 3079 3074 3073 3074 3075 3077 3080 3081 3084 3086 3089 3091 3093 3094 3096 3097 3100 3102 3103 3104 3105 3107 3107 3107 3108 3108 3108 3109 3109 3109 3109 3111 3112 3113 3115 3116 3118 3120 3121 3122 3124 3125 3127 3128 3130 3131 3132 3133 3135 3137 3138 3139 3140 3140 3141 3141 3141 3141 3141 3141 3142 3141
3068 3069 3071 3072 3073 3075 3075 3075 3076 3077 3077 3077 3077 3078 3080 3081 3082 3082 3082 3083 3082 3081 3081 3081 3079 3074 3072 3073 3073 3074 3076 3078 3081 3084 3086 3088 3090 3092 3094 3096 3099 3101 3102 3104 3105 3106 3106 3106 3106 3107 3107 3107 3107 3108 3109 3110 3111 3113 3114 3116 3117 3119 3120 3122 3123 3125 3127 3128 3130 3132 3133 3134 3136 3138 3138 3139 3140 3140 3141 3141 3142 3142 3142 3142 3142 3142
3066 3068 3070 3071 3072 3073 3073 3074 3074 3075 3076 3075 3075 3078 3079 3080 3081 3081 3082 3083 3082 3080 3080 3081 3081 3076 3073 3072 3071 3072 3074 3077 3079 3082 3084 3086 3088 3090 3092 3094 3097 3099 3101 3103 3103 3104 3104 3105 3105 3106 3106 3106 3107 3107 3108 3109 3110 3112 3113 3115 3117 3118 3120 3121 3123 3124 3126 3128 3130 3132 3133 3135 3137 3138 3138 3139 3140 3140 3141 3142 3142 3143 3143 3143 3143 3143
3064 3066 3068 3069 3071 3071 3072 3071 3072 3074 3075 3074 3074 3077 3078 3079 3080 3080 3081 3081 3081 3079 3078 3079 3079 3076 3073 3071 3070 3071 3073 3076 3078 3080 3083 3084 3086 3088 3090 3093 3096 3099 3100 3101 3102 3102 3103 3103 3104 3104 3105 3105 3106 3107 3107 3108 3110 3111 3113 3114 3116 3117 3119 3120 3122 3124 3126 3128 3130 3131 3133 3135 3137 3137 3138 3139 3140 3140 3141 3142 3143 3144 3144 3144 3144 3144
3064 3066 3067 3069 3070 3070 3069 3070 3071 3074 3074 3073 3074 3076 3077 3077 3078 3079 3080 3080 3080 3079 3076 3076 3077 3075 3072 3071 3071 3071 3073 3076 3078 3079 3081 3083 3085 3087 3089 3092 3096 3098 3100 3100 3101 3101 3102 3102 3103 3103 3103 3104 3105 3105 3106 3108 3109 3110 3111 3113 3115 3116 3118 3120 3122 3124 3126 3127 3129 3131 3133 3135 3136 3137 3138 3139 3140 3141 3141 3142 3143 3144 3144 3144 3144 3144
3064 3065 3066 3068 3068 3067 3067 3068 3070 3072 3072 3072 3074 3075 3075 3076 3077 3078 3078 3078 3079 3078 3075 3074 3075 3074 3072 3071 3071 3072 3074 3076 3078 3079 3081 3082 3084 3086 3089 3092 3095 3097 3098 3099 3099 3100 3100 3101 3101 3102 3102 3102 3103 3104 3105 3107 3108 3109 3110 3112 3113 3115 3117 3119 3121 3123 3125 3127 3129 3130 3132 3135 3136 3138 3139 3140 3141 3141 3142 3143 3143 3144 3144 3145 3144 3144
3063 3064 3065 3066 3065 3066 3066 3067 3068 3069 3069 3071 3072 3073 3074 3075 3075 3076 3077 3077 3078 3076 3073 3072 3073 3072 3071 3071 3071 3072 3074 3075 3077 3078 3079 3081 3082 3085 3088 3092 3094 3096 3097 3098 3098 3099 3099 3100 3100 3100 3101 3101 3102 3103 3104 3106 3107 3108 3109 3111 3112 3114 3116 3118 3120 3122 3124 3126 3128 3130 3132 3135 3137 3138 3139 3141 3141 3142 3143 3143 3144 3144 3145 3145 3145 3145
3060 3062 3063 3063 3064 3065 3065 3065 3066 3067 3067 3069 3070 3071 3072 3073 3073 3074 3074 3075 3076 3074 3071 3070 3071 3071 3071 3071 3072 3072 3073 3075 3076 3077 3078 3079 3081 3084 3087 3090 3092 3094 3096 3097 3097 3097 3098 3098 3099 3099 3100 3101 3102 3102 3104 3105 3106 3107 3108 3110 3111 3113 3115 3117 3119 3121 3123 3126 3128 3130 3132 3134 3136 3138 3139 3141 3142 3143 3143 3144 3144 3145 3146 3146 3146 3146
3058 3059 3061 3062 3062 3063 3064 3064 3064 3065 3066 3067 3068 3070 3071 3071 3072 3072 3072 3074 3074 3071 3069 3069 3069 3070 3070 3071 3072 3072 3073 3074 3075 3076 3078 3079 3081 3083 3086 3088 3091 3094 3096 3097 3097 3097 3097 3097 3097 3098 3099 3100 3101 3101 3102 3103 3105 3106 3107 3109 3110 3112 3114 3116 3118 3120 3123 3125 3128 3130 3132 3134 3136 3137 3139 3140 3142 3143 3144 3144 3144 3145 3146 3146 3147 3146
3057 3057 3059 3060 3060 3061 3062 3062 3062 3063 3064 3065 3066 3068 3069 3070 3073 3074 3073 3073 3071 3068 3068 3068 3068 3069 3069 3071 3072 3072 3073 3073 3074 3076 3078 3080 3082 3084 3086 3089 3091 3093 3095 3096 3096 3096 3096 3096 3097 3098 3099 3100 3100 3101 3101 3103 3104 3105 3106 3108 3109 3111 3113 3115 3117 3120 3122 3125 3127 3129 3131 3133 3135 3137 3138 3139 3141 3142 3143 3144 3144 3145 3146 3146 3146 3145
3057 3056 3057 3058 3059 3059 3060 3060 3061 3062 3062 3063 3064 3066 3066 3067 3070 3071 3070 3069 3068 3067 3067 3067 3068 3068 3069 3069 3071 3071 3072 3073 3074 3075 3078 3081 3084 3085 3087 3089 3090 3091 3092 3094 3095 3095 3095 3095 3097 3098 3099 3100 3100 3100 3101 3102 3103 3105 3106 3107 3109 3110 3112 3114 3116 3119 3121 3124 3126 3128 3130 3132 3134 3135 3137 3138 3139 3141 3142 3142 3143 3144 3145 3145 3145 3144
3056 3055 3055 3057 3058 3058 3059 3059 3060 3061 3061 3062 3063 3063 3064 3065 3066 3068 3067 3066 3065 3065 3067 3067 3068 3068 3069 3069 3070 3071 3072 3073 3074 3075 3078 3080 3082 3084 3086 3087 3087 3089 3091 3092 3093 3093 3093 3094 3096 3098 3099 3099 3099 3100 3101 3102 3103 3104 3105 3106 3108 3110 3111 3113 3116 3118 3120 3123 3125 3127 3129 3131 3132 3134 3136 3137 3138 3139 3140 3141 3141 3142 3143 3144 3144 3143
3055 3053 3054 3056 3056 3057 3058 3058 3059 3060 3060 3060 3060 3060 3062 3064 3065 3066 3066 3066 3065 3066 3068 3069 3068 3069 3069 3069 3070 3070 3071 3072 3073 3075 3077 3080 3081 3082 3083 3083 3085 3087 3089 3089 3090 3091 3092 3093 3095 3096 3097 3098 3099 3099 3101 3102 3103 3103 3104 3105 3107 3108 3110 3112 3114 3117 3119 3121 3124 3126 3128 3130 3131 3133 3134 3136 3137 3138 3138 3139 3139 3140 3142 3143 3144 3144
3053 3052 3052 3054 3054 3055 3055 3055 3056 3057 3058 3058 3058 3059 3061 3062 3063 3064 3065 3067 3067 3067 3068 3069 3068 3069 3069 3069 3069 3069 3069 3070 3072 3074 3076 3078 3080 3081 3081 3082 3083 3085 3086 3087 3088 3089 3090 3091 3093 3094 3095 3097 3098 3099 3101 3102 3103 3103 3104 3105 3106 3107 3109 3111 3113 3115 3118 3120 3122 3125 3127 3128 3130 3131 3133 3134 3135 3136 3137 3138 3138 3139 3140 3141 3143 3143
3053 3052 3051 3052 3054 3053 3053 3053 3053 3054 3055 3056 3057 3057 3059 3060 3061 3062 3063 3066 3067 3068 3070 3070 3069 3069 3068 3069 3069 3069 3069 3070 3072 3073 3076 3078 3080 3080 3081 3082 3083 3084 3085 3085 3086 3088 3089 3090 3090 3091 3093 3095 3097 3099 3101 3102 3102 3103 3103 3104 3105 3107 3109 3111 3113 3115 3117 3119 3121 3123 3125 3126 3128 3130 3131 3133 3134 3135 3136 3137 3137 3138 3139 3140 3141 3142
3052 3052 3051 3051 3052 3052 3051 3051 3051 3051 3053 3054 3055 3056 3057 3058 3059 3060 3060 3061 3063 3066 3069 3070 3070 3069 3067 3068 3069 3069 3070 3071 3073 3074 3076 3078 3079 3079 3080 3081 3082 3083 3084 3085 3086 3087 3087 3086 3086 3088 3091 3093 3095 3098 3100 3101 3101 3102 3102 3102 3103 3105 3107 3110 3112 3114 3116 3118 3120 3122 3123 3124 3126 3128 3130 3131 3133 3134 3135 3136 3136 3137 3138 3139 3139 3140
3051 3051 3050 3050 3051 3051 3051 3050 3050 3050 3051 3052 3053 3054 3055 3056 3058 3058 3059 3059 3059 3062 3065 3068 3069 3067 3066 3067 3068 3069 3071 3072 3074 3075 3076 3077 3078 3078 3079 3081 3082 3083 3082 3082 3083 3085 3085 3085 3085 3087 3090 3093 3095 3097 3098 3100 3100 3101 3100 3100 3100 3103 3106 3109 3111 3113 3115 3117 3119 3120 3122 3123 3124 3126 3128 3130 3131 3132 3134 3135 3136 3137 3137 3137 3138 3139
3049 3050 3050 3049 3050 3050 3050 3050 3050 3050 3050 3050 3051 3053 3053 3054 3056 3057 3058 3058 3058 3059 3061 3063 3065 3065 3065 3066 3067 3069 3071 3073 3074 3075 3076 3077 3078 3078 3077 3078 3080 3081 3080 3080 3081 3083 3084 3085 3088 3090 3091 3094 3096 3097 3097 3099 3099 3099 3098 3098 3101 3104 3105 3107 3109 3111 3114 3116 3117 3118 3120 3121 3123 3124 3126 3128 3129 3131 3133 3134 3135 3135 3136 3136 3137 3139
3048 3049 3049 3049 3049 3048 3049 3049 3049 3049 3049 3049 3050 3051 3052 3052 3054 3055 3056 3056 3057 3058 3059 3060 3062 3065 3065 3066 3067 3069 3071 3072 3074 3075 3075 3076 3076 3077 3077 3078 3079 3080 3080 3079 3080 3082 3084 3085 3088 3090 3092 3094 3096 3098 3099 3100 3099 3099 3100 3102 3104 3104 3104 3105 3107 3109 3112 3114 3115 3116 3118 3119 3121 3122 3124 3126 3128 3130 3132 3133 3133 3134 3135 3135 3137 3138
3047 3048 3048 3049 3048 3048 3048 3048 3048 3049 3049 3049 3050 3050 3051 3051 3052 3053 3054 3055 3056 3057 3058 3059 3063 3066 3065 3066 3067 3068 3070 3071 3072 3074 3074 3074 3074 3076 3077 3079 3079 3080 3079 3079 3080 3081 3083 3084 3087 3089 3091 3092 3094 3096 3098 3099 3099 3100 3103 3104 3103 3103 3103 3105 3106 3108 3109 3111 3112 3113 3115 3117 3119 3120 3122 3124 3126 3129 3130 3130 3131 3133 3134 3134 3136 3137
3045 3047 3048 3048 3048 3049 3048 3048 3047 3047 3048 3048 3049 3050 3050 3051 3051 3052 3053 3054 3055 3056 3057 3058 3062 3064 3065 3066 3067 3068 3069 3070 3072 3073 3073 3073 3074 3075 3077 3079 3080 3080 3079 3079 3080 3081 3082 3084 3086 3087 3089 3090 3092 3094 3095 3096 3097 3099 3100 3100 3099 3100 3101 3104 3105 3105 3106 3108 3110 3111 3113 3115 3116 3118 3120 3122 3124 3126 3126 3127 3129 3131 3132 3133 3135 3136
3043 3046 3047 3047 3047 3048 3048 3047 3047 3047 3047 3047 3048 3049 3050 3050 3051 3051 3052 3052 3053 3055 3056 3057 3059 3062 3064 3066 3066 3067 3069 3070 3071 3073 3073 3074 3074 3074 3076 3078 3079 3079 3078 3079 3080 3080 3081 3083 3085 3086 3087 3089 3091 3092 3093 3094 3095 3095 3096 3097 3097 3097 3099 3102 3102 3100 3102 3106 3108 3110 3111 3112 3113 3115 3116 3118 3119 3120 3121 3124 3127 3129 3130 3132 3133 3135
3042 3044 3045 3044 3044 3045 3045 3045 3045 3046 3046 3047 3047 3048 3049 3050 3050 3051 3051 3052 3052 3054 3056 3057 3058 3060 3063 3065 3066 3067 3068 3069 3070 3071 3072 3074 3074 3074 3075 3077 3077 3077 3077 3078 3079 3079 3080 3082 3084 3085 3087 3088 3090 3091 3091 3092 3093 3093 3094 3095 3095 3094 3097 3100 3098 3096 3101 3105 3106 3106 3108 3109 3110 3111 3112 3113 3115 3117 3119 3123 3126 3127 3128 3130 3132 3134
3041 3042 3043 3043 3043 3043 3044 3045 3045 3045 3046 3046 3046 3047 3048 3049 3050 3050 3051 3051 3052 3053 3055 3057 3058 3059 3062 3065 3066 3066 3067 3068 3069 3070 3071 3073 3073 3073 3074 3076 3077 3077 3077 3077 3078 3078 3080 3081 3083 3085 3086 3087 3088 3089 3090 3090 3091 3091 3092 3093 3093 3092 3094 3096 3095 3096 3101 3103 3103 3103 3104 3106 3107 3108 3109 3111 3114 3117 3119 3121 3124 3125 3127 3129 3131 3132
3040 3041 3041 3042 3043 3043 3044 3044 3045 3045 3045 3045 3045 3046 3046 3048 3049 3050 3051 3052 3053 3053 3054 3056 3058 3059 3061 3063 3064 3065 3066 3067 3068 3069 3070 3071 3072 3073 3074 3075 3076 3076 3077 3077 3078 3078 3080 3081 3083 3085 3086 3087 3088 3088 3089 3089 3089 3090 3091 3091 3091 3091 3091 3093 3094 3097 3099 3100 3100 3102 3102 3103 3104 3106 3107 3108 3111 3114 3116 3119 3121 3123 3125 3127 3129 3130
3039 3040 3040 3041 3042 3043 3044 3044 3045 3045 3045 3045 3045 3045 3046 3047 3048 3050 3051 3052 3053 3054 3055 3056 3057 3059 3060 3062 3063 3064 3065 3067 3068 3068 3069 3070 3071 3072 3073 3075 3076 3076 3077 3077 3077 3078 3080 3081 3083 3084 3085 3086 3087 3087 3088 3088 3088 3089 3089 3090 3089 3090 3091 3092 3094 3096 3098 3099 3100 3101 3101 3102 3103 3103 3105 3106 3109 3111 3114 3116 3119 3121 3123 3125 3126 3128
3039 3039 3039 3040 3042 3043 3044 3044 3044 3045 3045 3045 3045 3045 3045 3046 3047 3048 3049 3051 3052 3054 3055 3056 3057 3058 3060 3061 3062 3064 3065 3066 3067 3068 3069 3070 3070 3071 3073 3074 3075 3076 3076 3077 3077 3078 3079 3081 3082 3084 3085 3086 3087 3087 3087 3087 3087 3088 3088 3089 3089 3090 3090 3092 3094 3096 3097 3099 3099 3100 3101 3101 3101 3102 3103 3105 3107 3109 3112 3115 3118 3120 3122 3123 3124 3126
3038 3038 3039 3040 3041 3043 3043 3044 3044 3045 3045 3045 3045 3045 3045 3045 3046 3047 3048 3049 3050 3052 3054 3056 3057 3058 3059 3060 3062 3063 3064 3066 3067 3068 3069 3070 3070 3070 3071 3073 3074 3074 3075 3076 3077 3077 3079 3080 3081 3083 3084 3086 3087 3087 3087 3088 3088 3088 3088 3088 3089 3090 3091 3092 3094 3096 3097 3098 3099 3100 3100 3101 3102 3103 3104 3105 3106 3108 3110 3113 3115 3118 3120 3121 3123 3124
3037 3038 3039 3039 3041 3042 3043 3044 3044 3044 3045 3046 3046 3045 3046 3046 3046 3047 3047 3048 3049 3051 3053 3054 3056 3058 3059 3060 3061 3063 3064 3065 3067 3068 3068 3069 3069 3069 3070 3071 3072 3073 3074 3075 3076 3077 3078 3079 3081 3082 3084 3085 3087 3088 3088 3088 3088 3088 3088 3089 3089 3090 3092 3093 3094 3095 3096 3097 3098 3099 3100 3101 3102 3103 3104 3105 3106 3107 3110 3112 3114 3116 3118 3120 3122 3123
3037 3038 3038 3039 3040 3042 3043 3044 3044 3045 3046 3046 3046 3046 3047 3046 3047 3048 3048 3048 3049 3051 3053 3054 3055 3057 3058 3059 3060 3062 3063 3065 3067 3068 3068 3069 3070 3070 3071 3072 3072 3073 3074 3075 3075 3076 3078 3079 3080 3082 3083 3084 3086 3087 3088 3089 3089 3089 3090 3090 3090 3091 3092 3093 3094 3095 3096 3096 3097 3098 3100 3101 3102 3103 3103 3104 3105 3107 3109 3110 3112 3115 3117 3119 3120 3120
3037 3038 3038 3039 3040 3041 3043 3044 3045 3046 3046 3046 3046 3047 3047 3047 3048 3049 3049 3049 3050 3051 3053 3054 3055 3056 3057 3058 3060 3061 3063 3065 3066 3067 3068 3069 3070 3070 3071 3072 3073 3074 3074 3075 3076 3077 3078 3079 3080 3081 3082 3083 3084 3086 3087 3088 3089 3090 3090 3090 3091 3092 3093 3094 3094 3095 3096 3096 3097 3098 3099 3101 3102 3102 3103 3104 3106 3108 3108 3108 3110 3113 3115 3116 3116 3117
3037 3037 3038 3039 3040 3042 3043 3044 3045 3045 3045 3046 3047 3047 3047 3048 3049 3050 3050 3050 3051 3052 3053 3054 3055 3057 3059 3060 3060 3061 3062 3064 3065 3066 3068 3069 3070 3070 3071 3072 3073 3074 3074 3074 3076 3077 3078 3079 3080 3081 3082 3083 3084 3085 3086 3087 3088 3089 3090 3091 3092 3093 3093 3094 3095 3096 3096 3096 3097 3097 3098 3100 3101 3101 3102 3103 3105 3107 3107 3108 3110 3113 3113 3113 3113 3114
3036 3037 3037 3039 3041 3042 3043 3044 3045 3045 3046 3046 3047 3047 3048 3048 3049 3050 3051 3052 3053 3053 3054 3055 3057 3059 3060 3061 3061 3062 3063 3064 3065 3066 3067 3069 3070 3071 3071 3072 3073 3074 3074 3075 3076 3076 3077 3078 3079 3081 3082 3082 3083 3084 3086 3087 3087 3088 3089 3090 3091 3092 3093 3094 3095 3095 3096 3097 3097 3097 3097 3098 3099 3100 3100 3101 3103 3104 3105 3107 3108 3110 3111 3112 3112 3113
3036 3037 3037 3038 3040 3041 3042 3044 3046 3046 3046 3046 3046 3047 3048 3049 3050 3050 3051 3052 3053 3054 3056 3057 3058 3059 3060 3061 3062 3063 3064 3065 3066 3066 3067 3068 3070 3071 3072 3072 3073 3074 3076 3077 3077 3077 3077 3078 3078 3079 3080 3081 3082 3083 3084 3085 3086 3087 3088 3089 3090 3091 3092 3093 3094 3094 3095 3096 3097 3097 3097 3097 3098 3099 3099 3100 3101 3103 3104 3105 3106 3108 3109 3110 3110 3110
3036 3037 3038 3038 3039 3040 3041 3043 3045 3045 3045 3046 3047 3048 3048 3049 3050 3051 3052 3052 3053 3054 3056 3057 3058 3059 3060 3062 3063 3064 3064 3065 3066 3067 3067 3068 3069 3070 3071 3072 3074 3075 3076 3077 3078 3079 3079 3079 3079 3079 3080 3080 3080 3081 3081 3083 3084 3085 3086 3087 3088 3089 3089 3090 3092 3093 3094 3095 3096 3097 3097 3098 3098 3099 3099 3100 3101 3102 3103 3104 3105 3106 3107 3108 3108 3108
3036 3037 3038 3038 3039 3040 3040 3042 3043 3044 3045 3046 3047 3048 3049 3049 3050 3051 3052 3052 3053 3054 3056 3057 3058 3060 3061 3062 3064 3065 3065 3066 3067 3067 3067 3068 3069 3070 3071 3073 3074 3075 3076 3077 3078 3078 3079 3079 3080 3081 3081 3081 3081 3082 3082 3082 3083 3084 3084 3086 3087 3087 3088 3089 3090 3092 3093 3094 3095 3096 3097 3098 3098 3099 3099 3100 3101 3101 3102 3103 3104 3105 3106 3106 3106 3107
3036 3037 3037 3038 3039 3040 3040 3041 3043 3044 3044 3045 3046 3047 3048 3049 3050 3050 3051 3051 3052 3054 3055 3057 3059 3060 3062 3063 3064 3065 3066 3067 3067 3068 3068 3069 3070 3071 3072 3073 3074 3075 3076 3076 3077 3078 3079 3080 3080 3081 3081 3082 3082 3083 3083 3084 3084 3084 3085 3086 3086 3087 3088 3089 3090 3091 3092 3093 3094 3095 3096 3097 3098 3098 3099 3099 3100 3100 3101 3102 3102 3103 3104 3104 3105 3105
3036 3037 3038 3038 3039 3040 3041 3041 3042 3043 3043 3044 3045 3046 3047 3048 3049 3049 3050 3052 3053 3054 3055 3057 3060 3062 3063 3064 3065 3065 3066 3067 3067 3068 3068 3069 3070 3071 3071 3072 3073 3074 3075 3075 3076 3077 3077 3078 3079 3080 3081 3081 3081 3082 3083 3084 3084 3085 3085 3086 3087 3088 3089 3089 3090 3091 3092 3093 3093 3094 3095 3096 3096 3097 3097 3097 3098 3098 3099 3100 3100 3101 3102 3102 3103 3103
3037 3037 3038 3039 3039 3040 3041 3041 3042 3043 3043 3044 3045 3046 3047 3048 3048 3048 3050 3052 3053 3054 3056 3058 3061 3063 3064 3064 3065 3065 3066 3066 3067 3068 3068 3069 3070 3071 3072 3072 3073 3074 3074 3075 3075 3076 3077 3077 3078 3079 3080 3080 3081 3082 3082 3083 3084 3084 3084 3085 3086 3087 3087 3088 3088 3089 3090 3091 3092 3093 3093 3094 3094 3095 3095 3095 3096 3096 3097 3098 3099 3099 3100 3100 3101 3101
3037 3038 3038 3039 3040 3041 3041 3041 3042 3043 3043 3044 3045 3046 3047 3048 3048 3049 3050 3052 3053 3055 3057 3059 3061 3062 3063 3064 3065 3065 3066 3067 3068 3068 3069 3070 3071 3072 3072 3073 3073 3074 3074 3075 3075 3076 3076 3077 3078 3078 3079 3079 3080 3080 3081 3082 3082 3083 3083 3084 3085 3086 3086 3087 3087 3088 3088 3089 3090 3091 3091 3091 3092 3092 3092 3093 3094 3094 3095 3096 3096 3097 3097 3097 3098 3098
3039 3039 3039 3040 3041 3041 3042 3042 3042 3043 3044 3044 3045 3046 3047 3048 3049 3050 3051 3053 3054 3056 3058 3059 3061 3062 3063 3064 3065 3065 3066 3067 3068 3069 3069 3070 3071 3072 3072 3073 3073 3074 3074 3075 3075 3076 3076 3077 3077 3077 3078 3078 3079 3079 3080 3080 3081 3081 3082 3083 3084 3084 3084 3085 3085 3085 3086 3086 3087 3087 3088 3088 3089 3089 3090 3090 3090 3091 3091 3092 3092 3093 3093 3092 3093 3094
3040 3040 3040 3041 3041 3042 3043 3043 3044 3044 3045 3045 3046 3047 3048 3049 3050 3051 3052 3053 3055 3056 3058 3060 3061 3062 3062 3063 3064 3065 3066 3066 3067 3068 3069 3070 3071 3071 3072 3072 3072 3073 3074 3075 3075 3075 3075 3075 3076 3076 3076 3077 3077 3078 3078 3079 3079 3080 3080 3081 3081 3082 3082 3082 3082 3082 3083 3083 3083 3084 3084 3084 3085 3085 3086 3086 3086 3087 3087 3087 3088 3088 3088 3088 3088 3089
3041 3041 3042 3042 3042 3043 3044 3045 3046 3046 3046 3047 3048 3048 3049 3051 3052 3053 3054 3054 3055 3056 3058 3059 3060 3061 3062 3063 3063 3064 3065 3066 3067 3068 3069 3069 3070 3070 3070 3071 3072 3073 3073 3074 3074 3074 3074 3074 3074 3074 3074 3075 3075 3076 3076 3076 3077 3077 3077 3078 3078 3079 3079 3079 3080 3080 3080 3081 3081 3081 3080 3080 3080 3081 3081 3081 3082 3082 3083 3083 3084 3084 3084 3084 3084 3085
3043 3043 3044 3044 3044 3044 3045 3047 3047 3048 3048 3049 3050 3050 3051 3052 3053 3054 3055 3056 3056 3057 3058 3059 3060 3061 3062 3063 3063 3064 3065 3066 3067 3067 3068 3068 3068 3068 3069 3070 3071 3072 3072 3072 3072 3072 3072 3072 3072 3072 3073 3073 3073 3073 3073 3074 3074 3074 3075 3075 3075 3075 3076 3076 3077 3077 3077 3078 3078 3078 3077 3077 3077 3077 3077 3077 3077 3078 3078 3079 3079 3079 3079 3079 3080 3080
3045 3045 3045 3046 3046 3046 3047 3048 3049 3050 3050 3051 3052 3053 3053 3054 3055 3056 3057 3058 3058 3058 3059 3060 3061 3062 3063 3063 3064 3064 3065 3066 3066 3066 3067 3067 3067 3067 3068 3069 3070 3070 3070 3070 3070 3070 3070 3070 3070 3071 3071 3071 3071 3071 3071 3071 3071 3072 3072 3072 3072 3072 3072 3072 3072 3073 3073 3074 3074 3074 3074 3074 3073 3074 3074 3074 3074 3074 3074 3075 3075 3075 3074 3074 3073 3074
3046 3047 3047 3047 3047 3048 3048 3049 3050 3051 3052 3053 3053 3054 3055 3056 3056 3057 3058 3058 3059 3059 3060 3060 3061 3062 3062 3063 3063 3064 3064 3064 3065 3065 3065 3065 3065 3066 3067 3067 3068 3068 3068 3068 3068 3068 3068 3068 3068 3068 3068 3068 3067 3067 3067 3068 3068 3068 3068 3068 3068 3068 3068 3068 3069 3069 3069 3069 3069 3069 3069 3070 3070 3070 3070 3070 3070 3070 3070 3070 3070 3070 3070 3069 3069 3068
3048 3048 3048 3049 3049 3049 3049 3050 3051 3052 3053 3053 3054 3055 3055 3055 3056 3057 3057 3058 3058 3059 3059 3060 3060 3060 3061 3061 3061 3061 3061 3062 3062 3062 3063 3063 3063 3064 3065 3065 3065 3065 3064 3064 3065 3065 3066 3066 3066 3065 3065 3065 3065 3064 3064 3065 3065 3065 3065 3065 3065 3065 3065 3065 3065 3065 3065 3065 3065 3066 3066 3066 3066 3066 3066 3066 3066 3066 3066 3066 3065 3065 3064 3064 3064 3063